{"data":{"norad_id":62306,"epoch":"2026-05-25T03:59:27.391200Z","epoch_age_seconds":67905,"freshness":"FRESH","line1":"1 62306U 24239F   26145.16628925  .00016098  00000+0  55425-3 0  9991","line2":"2 62306  53.1572 198.6337 0001055  79.3136 280.7983 15.30212863 81095","mean_motion":15.30212863,"eccentricity":0.0001055,"inclination_deg":53.1572,"raan_deg":198.6337,"arg_perigee_deg":79.3136,"mean_anomaly_deg":280.7983,"bstar":0.00055425,"rev_number":8109,"period_min":94.104554655021,"perigee_km":474.45363849748,"apogee_km":475.89968768039,"semimajor_km":6853.3136630889,"source":"CELESTRAK","updated_at":"2026-05-25T13:38:19.648050Z"}}